Change the Weather History Date:

Sunday, March 3, 2013

  Actual Average Record
Temperature  
Mean Temperature 78 °F -  
Max Temperature 82 °F - - ()
Min Temperature 74 °F - - ()
Cooling Degree Days 13    
Growing Degree Days 28 (Base 50)    
Moisture  
Dew Point 78 °F    
Average Humidity 95    
Maximum Humidity 100    
Minimum Humidity 89    
Precipitation  
Precipitation 0.83 in - - ()
Sea Level Pressure  
Sea Level Pressure 29.56 in    
Wind  
Wind Speed 14 mph ()    
Max Wind Speed 23 mph    
Max Gust Speed -    
T = Trace of Precipitation, MM = Missing Value Source: Averaged Metar Reports

Daily Weather History Graph

Daily Weather History Graph

Search for Another Location

Airport or City:

Trip Planner

Search our weather history database for the weather conditions in past years. The results will help you decide how hot, cold, wet, or windy it might be!

Date:

Astronomy

Mar. 03, 2013 Rise Set
Actual Time 6:02 AM AEST 6:29 PM AEST
Civil Twilight 5:40 AM AEST 6:51 PM AEST
Nautical Twilight 5:13 AM AEST 7:18 PM AEST
Astronomical Twilight 4:47 AM AEST 7:44 PM AEST
Moon 10:20 PM AEST (3/3) 10:48 AM AEST (3/3)
Length of Visible Light 13h 11m
Length of Day
12h 27m
Waning Gibbous, 70% of the Moon is Illuminated
Mar 3
Waning Gibbous
Mar 5
Last Quarter
Mar 12
New
Mar 20
First Quarter
Mar 27
Full

Hourly Weather History & Observations

Time (AEST) Temp. Heat Index Dew Point Humidity Pressure Visibility Wind Dir Wind Speed Gust Speed Precip Events Conditions
12:00 AM 79 °F - 79 °F 99% 29.61 in - ESE 11.5 mph - -  
12:00 AM 78.8 °F - 78.8 °F 100% 29.59 in - ESE 11.5 mph - N/A   Unknown
12:30 AM 78.8 °F - 78.8 °F 100% 29.59 in - ESE 13.8 mph - N/A   Unknown
1:00 AM 78.8 °F - 78.8 °F 100% 29.59 in - SE 17.3 mph - N/A   Unknown
1:30 AM 78.8 °F - 78.8 °F 100% 29.59 in - SE 13.8 mph - N/A   Unknown
2:00 AM 78.8 °F - 77.0 °F 94% 29.59 in - ESE 15.0 mph - N/A   Unknown
2:30 AM 78.8 °F - 77.0 °F 94% 29.56 in - ESE 17.3 mph - N/A   Unknown
3:00 AM 79 °F - 77 °F 91% 29.57 in - SE 18.4 mph - -  
3:00 AM 78.8 °F - 77.0 °F 94% 29.56 in - SE 18.4 mph - N/A   Unknown
3:30 AM 78.8 °F - 77.0 °F 94% 29.56 in - SE 17.3 mph - N/A   Unknown
4:00 AM 78.8 °F - 77.0 °F 94% 29.53 in - SE 21.9 mph - N/A   Unknown
5:00 AM 78.8 °F - 77.0 °F 94% 29.53 in - SSE 21.9 mph - N/A   Unknown
5:30 AM 78.8 °F - 77.0 °F 94% 29.56 in - SE 20.7 mph - N/A   Unknown
6:00 AM 79 °F - 76 °F 89% 29.56 in - SE 23.0 mph - -  
6:00 AM 78.8 °F - 77.0 °F 94% 29.56 in - SE 23.0 mph - N/A   Unknown
6:30 AM 80.6 °F 87.1 °F 77.0 °F 89% 29.56 in - SE 19.6 mph - N/A   Unknown
7:00 AM 78.8 °F - 77.0 °F 94% 29.56 in - SSE 23.0 mph - N/A   Unknown
8:00 AM 78.8 °F - 78.8 °F 100% 29.59 in - SSE 18.4 mph - N/A   Unknown
9:00 AM 79 °F - 79 °F 100% 29.60 in - South 15.0 mph - -  
9:00 AM 78.8 °F - 78.8 °F 100% 29.59 in - South 15.0 mph - N/A   Unknown
9:30 AM 78.8 °F - 78.8 °F 100% 29.59 in - SW 10.4 mph - N/A   Unknown
10:00 AM 78.8 °F - 78.8 °F 100% 29.59 in - SW 9.2 mph - N/A   Unknown
10:30 AM 78.8 °F - 78.8 °F 100% 29.59 in - SW 11.5 mph - N/A   Unknown
11:00 AM 78.8 °F - 78.8 °F 100% 29.56 in - SSW 8.1 mph - N/A   Unknown
11:30 AM 78.8 °F - 78.8 °F 100% 29.56 in - South 13.8 mph - N/A   Unknown
12:00 PM 80 °F - 80 °F 99% 29.55 in - South 13.8 mph - -  
12:00 PM 80.6 °F 89.3 °F 80.6 °F 100% 29.56 in - South 13.8 mph - N/A   Unknown
12:30 PM 82.4 °F 96.1 °F 82.4 °F 100% 29.53 in - SSE 16.1 mph - N/A   Unknown
1:00 PM 80.6 °F 89.3 °F 80.6 °F 100% 29.53 in - SE 20.7 mph - N/A   Unknown
1:30 PM 82.4 °F 92.4 °F 78.8 °F 89% 29.53 in - ESE 21.9 mph - N/A   Unknown
2:00 PM 82.4 °F 94.0 °F 80.6 °F 94% 29.53 in - ESE 21.9 mph - N/A   Unknown
2:30 PM 82.4 °F 92.4 °F 78.8 °F 89% 29.50 in - ESE 20.7 mph - N/A   Unknown
3:00 PM 82 °F - 79 °F 89% 29.51 in - East 19.6 mph - -  
3:00 PM 82.4 °F 92.4 °F 78.8 °F 89% 29.50 in - East 19.6 mph - N/A   Unknown
3:30 PM 82.4 °F 92.4 °F 78.8 °F 89% 29.50 in - East 18.4 mph - N/A   Unknown
4:00 PM 82.4 °F 92.4 °F 78.8 °F 89% 29.50 in - East 16.1 mph - N/A   Unknown
4:30 PM 82.4 °F 92.4 °F 78.8 °F 89% 29.50 in - ENE 12.7 mph - N/A   Unknown
5:00 PM 82.4 °F 92.4 °F 78.8 °F 89% 29.50 in - ENE 11.5 mph - N/A   Unknown
5:30 PM 82.4 °F 92.4 °F 78.8 °F 89% 29.50 in - East 11.5 mph - N/A   Unknown
6:00 PM 82 °F - 80 °F 90% 29.54 in - East 16.1 mph - -  
6:00 PM 82.4 °F 92.4 °F 78.8 °F 89% 29.53 in - East 16.1 mph - N/A   Unknown
6:30 PM 80.6 °F 88.1 °F 78.8 °F 94% 29.53 in - ENE 15.0 mph - N/A   Unknown
7:00 PM 80.6 °F 88.1 °F 78.8 °F 94% 29.56 in - ESE 12.7 mph - N/A   Unknown
7:30 PM 80.6 °F 88.1 °F 78.8 °F 94% 29.56 in - East 11.5 mph - N/A   Unknown
8:00 PM 80.6 °F 88.1 °F 78.8 °F 94% 29.56 in - NNE 6.9 mph - N/A   Unknown
8:30 PM 80.6 °F 88.1 °F 78.8 °F 94% 29.56 in - East 1.2 mph - N/A   Unknown
9:00 PM 78.8 °F - 78.8 °F 100% 29.56 in - WSW 12.7 mph - N/A   Unknown
9:19 PM 77.0 °F - 77.0 °F 100% 29.59 in - South 18.4 mph - N/A   Unknown
9:30 PM 77.0 °F - 77.0 °F 100% 29.59 in - South 17.3 mph - N/A   Unknown
10:00 PM - - - N/A% 29.59 in - South 17.3 mph - N/A   Unknown
10:30 PM 77.0 °F - 77.0 °F 100% 29.62 in - South 9.2 mph - N/A   Unknown
11:00 PM - - - N/A% 29.62 in - South 11.5 mph - N/A   Unknown
11:30 PM - - - N/A% 29.62 in - South 8.1 mph - N/A   Unknown
11:50 PM 77.0 °F - 77.0 °F 100% 29.59 in - SSE 18.4 mph - N/A   Unknown